Probability
10 10 6 0 0 0 0 0 0 0 0 0 0 0 0 0 0 0 0 0 0 0 0 0 0 0 0 0 0 0 3 6 0 3 3 6 6 0 0 0 0 0 0
3 13 10 0 0 3 0 0 0 0 0 0 0 0 0 0 0 0 0 0 0 0 0 0 0 0 0 0 0 0 0 6 0 0 3 6 6 0 0 0 0 0 0
0 0 0 0 3 3 0 0 0 0 0 0 0 0 0 0 0 0 0 0 0 0 0 0 0 0 0 0 0 0 0 3 3 0 0 0 0 0 0 0 0 0 0
0 0 0 0 0 0 0 0 0 0 0 0 0 0 0 0 0 0 0 0 0 0 0 0 0 0 0 0 0 0 0 3 0 0 0 0 0 0 0 0 0 0 0
0 0 0 0 0 0 0 0 0 0 0 0 0 0 0 0 0 0 0 0 0 0 0 0 0 0 0 0 0 0 0 0 0 0 0 0 0 0 0 0 0 0 0
0 0 0 0 0 0 0 0 0 0 0 0 0 0 0 0 0 0 0 0 0 0 0 0 0 0 0 0 0 0 0 0 0 0 0 0 0 0 0 0 0 0 0
0 0 0 0 0 0 0 0 0 0 0 0 0 0 0 0 0 0 0 0 0 0 0 0 0 0 0 0 0 0 0 0 0 0 0 0 0 0 0 0 0 0 0
0 0 0 0 0 0 0 0 0 3 0 0 0 0 0 0 0 0 0 0 0 0 0 0 0 0 0 0 0 0 0 0 0 0 0 0 0 0 0 0 0 0 0
0 0 0 0 0 0 0 0 0 0 0 0 0 0 0 0 0 0 0 0 0 0 0 0 0 0 0 0 0 0 0 0 0 0 0 0 0 0 0 0 0 0 0
0 0 0 0 0 0 3 3 0 0 0 0 0 0 0 0 0 0 0 0 0 0 0 0 0 0 0 0 0 0 0 0 0 0 0 0 0 0 0 0 0 0 0
0 0 0 0 3 3 0 0 0 0 0 0 0 0 0 0 0 0 0 0 0 0 0 0 0 0 0 0 0 0 0 0 0 0 0 0 0 0 0 0 0 0 0
0 0 0 0 0 0 0 0 0 0 0 0 0 0 0 0 0 0 0 0 0 0 0 0 0 0 0 0 0 0 0 0 0 0 0 0 0 0 0 0 0 0 0
0 0 0 0 0 0 3 3 0 0 0 0 0 0 0 0 0 0 0 0 0 0 0 0 0 0 0 0 0 0 0 0 0 0 0 0 0 0 0 0 0 0 0
0 0 0 0 0 3 3 0 0 0 0 0 0 0 0 0 0 0 0 0 0 0 0 0 0 0 0 0 0 0 0 0 0 0 0 0 0 0 0 0 0 0 0
0 0 0 0 0 0 0 0 0 0 0 0 0 0 0 0 0 0 0 0 0 0 0 0 0 0 0 0 0 0 0 0 0 0 0 0 0 0 0 0 0 0 0
0 0 0 0 0 0 0 0 0 0 0 0 0 0 0 0 0 0 0 0 0 0 0 0 0 0 0 0 0 0 0 0 0 0 0 0 0 0 0 0 0 0 0
0 0 0 0 0 0 0 0 0 0 0 0 0 0 0 0 0 0 0 0 0 0 0 0 0 0 0 0 0 0 0 0 0 0 0 0 0 0 0 0 0 0 0
0 0 0 0 0 0 0 0 0 0 0 0 0 0 0 0 0 0 0 0 0 0 0 0 0 0 0 0 0 0 0 0 0 0 0 0 0 0 0 0 0 0 0
0 0 0 0 0 0 0 0 0 0 0 0 0 0 0 0 0 0 0 0 0 0 0 0 0 0 0 0 0 0 0 0 0 0 0 0 0 0 0 0 0 0 0
0 0 0 0 0 0 0 0 0 0 0 0 0 0 0 0 0 0 0 0 0 0 0 0 0 0 0 0 0 0 0 0 0 0 0 0 0 0 0 0 0 0 0
0 0 0 0 0 0 0 0 0 0 0 0 0 0 0 0 0 0 0 0 0 0 0 0 0 0 0 0 0 0 0 0 0 0 0 0 0 0 0 0 0 0 0
0 0 0 0 0 0 0 0 0 0 0 0 0 0 0 0 0 0 0 0 0 0 0 0 0 0 0 0 0 0 0 0 0 0 0 0 0 0 0 0 0 0 0
0 0 0 0 0 0 0 0 0 0 0 0 0 0 0 0 0 0 0 0 0 0 0 0 0 0 0 0 0 0 0 0 0 0 0 0 0 0 0 0 0 0 0
0 0 0 0 0 0 0 0 0 0 0 0 0 0 0 0 0 0 0 0 0 0 0 0 0 0 0 0 0 0 0 0 0 0 0 0 0 0 0 0 0 0 0
0 0 0 0 0 0 0 0 0 0 0 0 0 0 0 0 0 0 0 0 0 0 0 0 0 0 0 0 0 0 0 0 0 0 0 0 0 0 0 0 0 0 0
0 0 0 0 0 0 0 0 0 0 0 0 0 0 0 0 0 0 0 0 0 0 0 0 0 0 0 0 0 0 0 0 0 0 0 0 0 0 0 0 0 0 0
Height
5790 5789 5788 5787 5786 5786 5785 5784 5784 5784 5784 5783 5783 5783 5783 5783 5783 5783 5783 5784 5785 5785 5786 5787 5788 5789 5789 5790 5791 5791 5791 5792 5792 5793 5792 5792 5792 5792 5792 5793 5793 5794 5795
5783 5782 5781 5780 5780 5779 5778 5777 5777 5776 5776 5776 5775 5775 5775 5774 5774 5774 5775 5775 5776 5777 5777 5778 5779 5780 5781 5782 5782 5783 5783 5784 5785 5785 5785 5785 5785 5785 5786 5786 5787 5788 5789
5776 5775 5774 5774 5773 5772 5771 5770 5770 5769 5769 5768 5767 5767 5766 5766 5766 5766 5766 5766 5767 5768 5768 5769 5770 5771 5772 5773 5774 5774 5775 5776 5776 5777 5778 5778 5778 5779 5779 5780 5781 5781 5782
5769 5768 5767 5767 5766 5765 5764 5763 5762 5762 5761 5760 5760 5759 5759 5758 5757 5757 5757 5757 5758 5758 5759 5760 5761 5762 5763 5764 5765 5766 5767 5768 5769 5769 5770 5771 5771 5772 5772 5773 5775 5775 5776
5763 5762 5761 5760 5759 5758 5757 5756 5755 5754 5754 5753 5752 5751 5751 5750 5750 5749 5749 5749 5749 5750 5750 5751 5752 5753 5754 5756 5757 5758 5759 5760 5761 5762 5763 5764 5765 5766 5767 5768 5769 5769 5770
5756 5755 5754 5753 5752 5751 5750 5749 5748 5747 5746 5745 5745 5744 5743 5742 5742 5741 5741 5741 5741 5742 5742 5743 5744 5745 5746 5748 5749 5750 5751 5753 5754 5755 5757 5758 5759 5760 5761 5762 5763 5764 5765
5750 5748 5747 5746 5745 5744 5743 5742 5741 5740 5739 5738 5737 5737 5736 5735 5735 5734 5734 5734 5734 5734 5735 5735 5736 5737 5738 5740 5741 5743 5744 5746 5748 5750 5751 5753 5754 5755 5756 5757 5758 5760 5761
5744 5742 5741 5740 5738 5737 5736 5735 5734 5733 5732 5731 5730 5730 5729 5729 5728 5728 5728 5727 5727 5727 5728 5728 5729 5730 5732 5733 5735 5736 5738 5740 5742 5744 5746 5748 5749 5750 5752 5753 5754 5756 5757
5738 5736 5735 5733 5732 5731 5730 5729 5728 5727 5726 5725 5724 5724 5724 5723 5723 5722 5722 5721 5721 5721 5721 5722 5723 5724 5726 5727 5729 5731 5733 5735 5738 5740 5741 5743 5745 5746 5748 5750 5751 5752 5753
5733 5731 5730 5728 5727 5725 5724 5723 5722 5721 5720 5720 5719 5719 5718 5718 5717 5717 5716 5716 5716 5717 5717 5717 5718 5720 5721 5723 5725 5727 5729 5732 5734 5736 5738 5740 5741 5743 5745 5746 5748 5749 5750
5728 5726 5725 5723 5722 5721 5719 5718 5717 5716 5716 5715 5715 5714 5713 5713 5712 5712 5712 5712 5712 5713 5713 5714 5715 5716 5717 5719 5721 5724 5726 5728 5731 5733 5735 5737 5739 5740 5742 5744 5745 5746 5747
5724 5723 5721 5720 5718 5717 5716 5714 5713 5713 5712 5711 5711 5710 5709 5709 5708 5708 5708 5708 5708 5709 5710 5711 5711 5713 5715 5717 5719 5721 5724 5726 5729 5731 5733 5735 5737 5738 5740 5741 5742 5743 5744
5722 5720 5719 5717 5716 5714 5713 5711 5710 5710 5709 5708 5708 5707 5706 5706 5705 5705 5705 5705 5705 5706 5707 5708 5709 5711 5713 5715 5717 5720 5723 5725 5727 5729 5731 5733 5735 5736 5738 5739 5740 5741 5742
5720 5718 5717 5715 5714 5712 5711 5709 5708 5707 5707 5706 5706 5705 5704 5704 5703 5703 5703 5703 5704 5704 5705 5706 5707 5709 5711 5713 5716 5719 5722 5724 5726 5728 5730 5732 5734 5735 5736 5738 5739 5741 5742
5719 5717 5716 5715 5713 5711 5710 5708 5707 5706 5706 5705 5704 5704 5703 5703 5702 5702 5702 5703 5703 5704 5705 5706 5707 5709 5711 5713 5715 5718 5721 5723 5725 5728 5730 5731 5733 5735 5736 5737 5739 5740 5741
5719 5717 5716 5715 5713 5711 5710 5708 5707 5706 5705 5705 5704 5703 5703 5702 5702 5702 5702 5703 5704 5704 5705 5706 5708 5710 5711 5713 5716 5718 5721 5723 5725 5727 5729 5731 5733 5735 5736 5738 5739 5740 5741
5720 5718 5716 5715 5714 5712 5710 5709 5708 5707 5706 5705 5705 5704 5704 5703 5703 5703 5704 5704 5705 5705 5707 5708 5709 5711 5712 5715 5717 5719 5721 5723 5726 5728 5730 5732 5734 5735 5737 5738 5739 5740 5741
5721 5719 5717 5716 5715 5713 5712 5710 5709 5708 5707 5707 5706 5706 5706 5705 5705 5706 5706 5706 5707 5708 5708 5709 5711 5712 5714 5716 5718 5720 5723 5725 5727 5729 5731 5733 5734 5736 5738 5739 5740 5741 5741
5722 5720 5719 5717 5716 5715 5713 5712 5711 5710 5709 5709 5709 5709 5709 5708 5708 5709 5709 5709 5710 5711 5711 5712 5713 5715 5717 5719 5721 5723 5725 5727 5729 5731 5733 5734 5736 5737 5739 5740 5740 5741 5741
5724 5722 5721 5719 5718 5717 5715 5714 5713 5713 5712 5712 5712 5712 5711 5711 5712 5712 5712 5713 5713 5714 5715 5716 5717 5718 5720 5722 5723 5725 5727 5729 5731 5733 5734 5736 5737 5738 5739 5740 5740 5741 5741
5727 5725 5723 5722 5721 5719 5718 5717 5716 5715 5715 5715 5715 5715 5714 5714 5715 5715 5716 5716 5717 5718 5719 5719 5721 5722 5723 5725 5727 5728 5730 5732 5734 5735 5736 5737 5738 5739 5740 5740 5740 5740 5740
5730 5728 5726 5725 5723 5722 5721 5720 5720 5719 5719 5718 5718 5718 5718 5718 5718 5719 5719 5720 5721 5721 5722 5723 5724 5726 5727 5729 5730 5732 5733 5735 5736 5737 5738 5738 5739 5740 5740 5740 5739 5739 5738
5734 5731 5730 5728 5726 5725 5725 5724 5723 5723 5722 5722 5722 5722 5722 5722 5722 5723 5723 5724 5725 5726 5726 5727 5728 5730 5731 5732 5733 5734 5736 5737 5738 5738 5739 5739 5739 5739 5739 5739 5738 5737 5736
5737 5735 5733 5732 5730 5729 5729 5728 5727 5727 5726 5726 5726 5726 5726 5726 5727 5727 5728 5728 5729 5730 5730 5731 5732 5733 5734 5735 5736 5737 5737 5738 5739 5739 5739 5739 5739 5739 5738 5737 5736 5735 5733
5741 5739 5737 5736 5735 5734 5733 5732 5731 5731 5730 5730 5730 5730 5730 5730 5730 5731 5731 5732 5732 5733 5733 5734 5735 5735 5736 5737 5737 5738 5738 5739 5739 5739 5739 5739 5738 5737 5736 5735 5734 5732 5730
5744 5742 5741 5739 5738 5737 5736 5736 5735 5734 5734 5734 5734 5733 5733 5733 5734 5734 5734 5735 5735 5735 5735 5736 5737 5737 5737 5738 5738 5738 5738 5738 5738 5738 5737 5737 5736 5735 5733 5732 5730 5728 5726
Wind_Speed
28 28 28 28 27 27 27 27 27 27 28 28 28 28 29 29 29 29 30 30 30 30 30 30 29 29 29 29 29 29 29 28 28 27 27 27 28 28 29 29 28 28 27
28 28 28 28 28 28 27 27 27 27 28 28 28 28 28 29 29 30 30 30 30 30 31 30 29 30 30 30 30 30 29 29 29 28 27 26 26 27 28 27 26 26 25
28 29 29 28 28 28 28 28 28 28 28 28 28 28 28 28 29 30 30 31 31 30 30 30 30 29 29 29 29 30 30 29 29 28 28 27 26 25 25 24 25 24 24
26 26 26 27 27 27 27 27 27 28 28 29 29 28 28 29 29 29 29 29 29 30 30 29 30 30 29 29 28 29 29 28 27 27 26 26 25 23 22 22 22 22 22
25 26 26 26 27 26 26 26 26 27 28 28 27 27 28 28 28 28 27 28 27 27 28 28 28 28 28 28 28 27 27 26 26 25 24 23 21 20 20 20 20 20 19
25 25 25 26 26 26 25 25 26 26 26 26 27 27 26 26 26 26 26 26 26 26 26 26 27 27 27 26 26 25 25 24 24 23 22 21 19 19 19 18 17 16 15
23 23 24 24 24 24 24 25 25 25 25 25 25 24 24 24 25 25 25 24 24 24 24 24 24 24 25 24 24 23 22 21 21 20 20 19 18 18 17 16 14 14 12
23 24 24 24 24 23 23 24 23 22 22 22 22 22 22 22 21 22 21 21 21 22 22 22 22 21 21 21 20 20 19 18 17 17 17 17 16 15 14 13 12 11 10
22 22 22 23 22 22 22 22 22 21 21 20 19 19 20 20 20 19 19 19 19 19 19 18 18 18 18 17 17 17 16 16 16 16 15 14 13 13 12 11 11 10 10
20 20 20 21 20 20 20 20 19 18 18 18 18 18 19 18 18 18 17 17 16 15 15 15 14 14 14 14 13 14 14 14 14 14 13 13 12 11 11 11 11 10 10
17 17 16 16 15 16 17 17 17 16 16 16 16 16 16 16 16 16 15 14 14 13 13 13 13 12 12 12 12 12 11 12 11 11 11 11 10 10 9 9 9 9 9
15 14 14 13 14 14 14 14 14 14 13 13 13 13 13 13 13 13 13 12 12 12 11 11 10 11 11 11 11 11 10 10 10 10 10 9 9 9 8 8 8 7 6
11 11 12 12 12 12 11 11 10 11 10 10 10 10 10 10 10 9 9 10 9 9 9 9 9 8 9 10 10 10 10 10 10 9 9 9 8 7 7 6 6 5 4
9 10 10 10 9 9 9 8 8 8 8 7 7 7 7 8 8 7 7 7 7 7 7 7 8 8 8 9 11 12 11 10 9 9 8 7 7 6 6 5 5 4 4
9 9 8 8 8 8 8 7 6 5 5 5 5 5 5 5 5 4 4 4 4 4 5 6 6 7 7 9 10 10 10 9 9 9 9 8 7 6 6 6 5 4 4
8 7 6 7 7 6 6 5 4 4 3 3 3 3 3 3 2 1 2 2 2 3 4 5 6 7 8 9 9 10 10 9 9 9 9 8 8 7 7 6 5 4 3
7 7 6 6 6 6 6 5 5 5 4 5 5 4 4 3 3 3 3 3 4 5 6 6 7 7 8 9 9 10 10 11 10 10 9 9 9 8 7 6 5 4 3
8 7 7 7 7 7 6 6 6 6 6 6 6 6 6 6 6 6 6 6 7 8 7 7 8 9 10 10 11 11 11 11 11 10 10 10 9 8 7 7 5 4 3
9 8 8 8 7 7 7 7 7 7 6 6 6 7 7 8 8 8 8 8 8 9 9 10 11 11 11 11 12 12 12 11 11 11 10 10 9 8 7 5 4 3 2
10 10 9 9 8 8 9 9 9 8 8 8 8 8 8 8 8 9 10 10 10 10 11 11 12 11 12 12 12 12 13 12 11 11 10 9 8 6 5 4 3 2 2
11 11 11 10 9 9 9 9 9 9 9 9 9 9 9 9 9 9 10 11 11 11 11 12 12 12 12 12 12 13 12 11 10 9 8 7 6 5 4 3 2 2 4
12 12 12 11 11 10 10 10 10 10 10 9 9 9 9 9 10 10 11 11 11 11 12 12 12 12 12 12 12 11 10 9 8 7 7 6 4 3 2 1 2 4 6
13 13 13 12 11 11 11 11 11 11 10 10 10 10 10 11 11 11 11 12 11 11 11 12 12 12 11 11 10 9 8 7 7 6 5 3 2 1 1 3 4 6 8
14 13 13 13 12 12 11 11 11 10 10 10 10 10 10 10 10 10 10 10 10 10 9 10 10 9 9 8 7 7 6 5 4 3 2 0 1 3 4 6 7 9 11
12 12 12 12 11 11 10 10 10 9 9 9 8 8 8 9 9 8 8 8 7 7 7 7 7 6 6 6 5 4 3 2 1 1 2 3 4 6 7 9 11 13 14
10 10 10 9 9 9 8 8 8 8 7 7 6 6 6 6 6 6 6 5 5 5 5 5 4 4 3 3 2 2 3 3 3 4 5 7 8 9 11 13 14 15 17
Wind_Direction
282 281 281 281 282 280 278 279 278 278 278 279 277 276 275 274 274 274 273 273 272 272 272 272 272 272 272 274 274 274 275 277 278 278 279 279 277 276 275 274 274 275 276
281 281 281 281 280 279 278 278 278 279 280 280 279 277 277 277 276 275 275 274 273 273 272 271 271 272 271 273 272 271 273 275 276 276 277 278 277 275 274 273 274 274 276
280 280 280 281 281 280 280 280 279 279 281 283 281 280 280 279 279 277 276 275 273 274 273 272 271 271 270 271 271 270 271 272 273 273 273 274 274 276 273 271 272 273 275
283 282 282 282 282 283 284 283 281 281 282 282 282 282 282 281 280 278 277 276 274 273 272 272 270 270 269 269 270 270 269 270 271 271 271 272 272 273 270 270 270 272 273
286 285 285 284 284 285 286 286 284 283 283 282 283 283 281 281 280 279 278 277 276 275 273 271 270 269 269 268 269 269 268 268 269 269 270 270 270 269 267 270 271 270 269
286 286 287 287 287 286 285 285 284 284 284 282 281 282 282 280 279 278 279 277 275 274 273 271 270 269 267 266 266 266 266 265 264 264 264 265 265 264 264 266 267 268 268
286 285 287 287 287 287 285 285 285 284 284 282 282 283 282 281 279 278 277 278 276 274 272 271 270 268 266 265 263 263 262 260 259 258 259 260 261 261 261 261 260 263 265
288 288 287 286 286 286 286 286 286 287 286 285 285 283 283 283 282 280 277 276 276 275 273 270 268 266 266 264 260 259 258 254 251 254 255 255 255 256 256 255 253 258 263
291 291 290 288 287 289 289 288 288 288 287 287 287 286 286 285 282 280 279 279 278 276 272 270 268 264 262 257 253 251 250 248 247 247 245 244 246 247 250 249 250 255 262
294 295 295 294 293 292 292 293 292 291 289 287 286 287 288 286 285 282 277 276 275 274 272 267 265 261 254 249 244 240 238 237 238 237 234 235 237 238 240 244 250 253 254
300 301 299 299 300 298 297 297 295 292 288 286 286 287 287 286 285 281 276 273 268 265 265 262 258 254 250 244 236 231 228 226 224 224 223 223 225 228 233 240 243 244 250
303 303 304 305 306 304 304 300 295 292 288 286 285 285 285 284 282 280 273 267 264 259 258 255 250 241 237 231 223 220 217 213 210 213 215 217 219 224 232 237 240 249 251
313 313 313 312 312 311 308 302 296 292 289 286 283 284 287 286 283 280 268 264 261 258 255 251 239 227 219 213 205 201 202 204 202 202 208 212 211 212 217 220 226 230 224
327 325 323 323 324 325 321 312 304 297 294 292 291 290 293 292 286 276 265 257 253 248 242 230 215 205 202 195 190 188 191 191 191 191 192 193 190 187 188 192 194 196 197
338 338 341 341 340 338 335 330 324 319 311 304 301 304 309 305 294 271 254 244 229 214 206 203 199 188 182 179 177 179 185 186 184 182 182 181 183 181 177 172 171 173 178
349 351 353 355 356 356 355 359 1 357 354 355 350 344 339 338 342 283 204 190 183 168 159 166 171 170 170 172 174 176 176 176 174 173 170 169 168 163 161 158 159 159 162
358 2 8 11 12 15 14 17 24 31 40 46 46 50 47 45 67 88 119 131 135 137 143 151 157 159 159 160 161 163 164 163 161 160 160 159 155 151 153 154 152 147 141
16 17 22 26 24 27 33 39 45 49 55 59 61 63 64 73 86 96 109 112 120 124 128 137 144 146 144 145 145 145 149 152 152 152 151 149 149 149 146 142 138 132 123
28 30 33 35 37 43 47 53 57 59 64 69 72 76 77 82 87 94 103 105 114 121 121 124 133 137 136 140 141 145 147 145 144 143 141 141 140 137 136 138 135 126 101
37 38 41 44 48 54 57 60 62 66 72 76 80 80 81 87 96 101 105 106 109 116 119 120 122 129 134 138 141 143 143 140 138 136 134 133 133 134 135 133 124 101 40
42 44 47 50 51 56 60 62 64 68 73 78 82 82 84 90 97 104 109 109 109 110 112 116 120 123 128 132 134 133 131 133 133 131 128 127 128 130 130 124 97 17 351
44 43 46 51 53 56 61 65 69 71 75 78 80 84 88 93 97 101 106 108 107 106 108 113 118 122 124 125 126 127 128 129 131 130 128 125 125 123 115 72 351 340 340
43 45 48 51 55 59 63 67 72 74 75 78 80 83 89 95 101 104 105 106 107 107 109 113 118 120 121 123 125 127 131 133 132 130 125 119 111 79 348 332 330 330 330
43 47 52 56 60 65 68 71 73 76 78 81 83 87 92 96 100 103 105 107 109 109 110 113 117 122 124 125 129 130 131 131 131 128 119 48 329 322 319 319 321 321 322
42 46 51 55 59 62 66 68 71 75 80 84 88 91 93 96 101 105 108 109 110 112 115 120 125 132 137 135 138 142 147 156 168 218 288 305 309 311 311 313 315 317 319
40 43 46 50 53 57 60 63 65 68 74 80 85 89 92 98 105 110 111 112 114 118 125 135 142 149 158 168 185 210 231 246 263 280 292 298 302 304 306 308 310 312 314